Location: Costa Valle Imagna
(45.8000°N, 9.5000°E)
Time: 09:38:50
(UTC+00:00)

Cosmos 614 Rocket - Pass Details

Date: 17 February 2020
Orbit: 733 x 764 km, 74.1° (Epoch: 03 April)

Event Time Altitude Azimuth Distance (km) Brightness Sun altitude
Rises 05:19:51 0° 215° (SW) 3,174 6.9 -11.5°
Reaches altitude 10° 05:22:15 10° 220° (SW) 2,260 6.1 -11.1°
Maximum altitude 05:27:14 51° 296° (WNW) 946 4.1 -10.2°
Drops below altitude 10° 05:32:18 10° 13° (NNE) 2,295 6.5 -9.3°
Sets 05:34:46 0° 18° (NNE) 3,229 7.4 -8.9°
